STARLINK-1773 (46679 NORAD) Tracking and Keplerian Element Data

This shows tracking and keplerian element data for the satellite.

Feedback or suggestion? Click here.




ElementValue
Catalog46679
NameSTARLINK-1773
Epoch Orbit776
Epoch Day338.83334491
Epoch Year2020
RAAN241.6098
Inclination53.0547
Eccentricity0.0001303
Argument of Perigee49.7872
Mean Anonmoly27.2218
Mean Motion15.62848121
Decay Rate-0.00095003
L11 46679U 20073K 20338.83334491 -.00095003 00000-0 -10400-2 0 9991
L22 46679 53.0547 241.6098 0001303 49.7872 27.2218 15.62848121 7762

Live tracking and technical data element details for STARLINK-1773 (NORAD 46679). STARLINK-1773 can be tracked NOW for your location showing map with azimuth and elevation plus other details from your city location.

Track the satellite on the map from your city or location and see movement details for azimuth, elevation, latitude, longitude, range, height, and movement on the map or in text.







IsCatalogInMostPopularTable: catalog: 46679, numindb: 9
Update: records affected: 1



GetName: 46679 STARLINK-1773

Hit Count: updated at: Sat, 05 Dec 2020 06:20:43 GMT